GPS BIII-1 (43873 NORAD) Tracking and Keplerian Element Data

This shows tracking and keplerian element data for the satellite.

Feedback or suggestion? Click here.




ElementValue
Catalog43873
NameGPS BIII-1
Epoch Orbit5147
Epoch Day354.01989119
Epoch Year2025
RAAN99.2599
Inclination55.5707
Eccentricity0.0037562
Argument of Perigee195.3516
Mean Anonmoly164.4447
Mean Motion2.00553953
Decay Rate-1.8E-07
L11 43873U 18109A 25354.01989119 -.00000018 00000+0 00000+0 0 9999
L22 43873 55.5707 99.2599 0037562 195.3516 164.4447 2.00553953 51471



Live tracking and technical data element details for GPS BIII-1 (NORAD 43873). GPS BIII-1 can be tracked NOW for your location showing map with azimuth and elevation plus other details from your city location.







IsCatalogInMostPopularTable: catalog: 43873, numindb: 1809
Update: records affected: 1



GetName: 43873 GPS BIII-1

Hit Count: updated at: Thu, 21 May 2026 11:33:53 GMT